Time,TemperatureF,DewpointF,PressureIn,WindDirection,WindDirectionDegrees,WindSpeedMPH,WindSpeedGustMPH,Humidity,HourlyPrecipIn,Conditions,Clouds,dailyrainin,SoftwareType,DateUTC
2014-12-17 00:01:00,27.2,23.2,29.97,North,0,0.0,0.0,85,0.00,,,0.00,WUHU216HW,2014-12-17 06:01:00,
2014-12-17 00:06:00,27.0,23.0,29.97,North,0,0.0,0.0,85,0.00,,,0.00,WUHU216HW,2014-12-17 06:06:00,
2014-12-17 00:11:00,27.0,23.0,29.97,North,0,0.0,0.0,85,0.00,,,0.00,WUHU216HW,2014-12-17 06:11:00,
2014-12-17 00:16:00,27.0,23.0,29.97,North,0,0.0,0.0,85,0.00,,,0.00,WUHU216HW,2014-12-17 06:16:00,
2014-12-17 00:21:00,27.0,23.0,29.97,North,0,0.0,0.0,85,0.00,,,0.00,WUHU216HW,2014-12-17 06:21:00,
2014-12-17 00:26:00,27.0,23.0,29.97,North,0,0.0,0.0,85,0.00,,,0.00,WUHU216HW,2014-12-17 06:26:00,
2014-12-17 00:31:00,27.0,23.0,29.97,North,0,0.0,0.0,85,0.00,,,0.00,WUHU216HW,2014-12-17 06:31:00,
2014-12-17 00:36:00,26.8,22.9,29.97,North,0,0.0,0.0,85,0.00,,,0.00,WUHU216HW,2014-12-17 06:36:00,
2014-12-17 00:41:00,26.8,22.9,29.97,North,0,0.0,0.0,85,0.00,,,0.00,WUHU216HW,2014-12-17 06:41:00,
2014-12-17 00:46:00,26.8,22.9,29.97,North,0,0.0,0.0,85,0.00,,,0.00,WUHU216HW,2014-12-17 06:46:00,
2014-12-17 00:51:00,27.0,22.8,29.97,North,0,0.0,0.0,84,0.00,,,0.00,WUHU216HW,2014-12-17 06:51:00,
2014-12-17 00:56:00,26.8,22.6,29.97,North,0,0.0,0.0,84,0.00,,,0.00,WUHU216HW,2014-12-17 06:56:00,
2014-12-17 01:01:00,26.8,22.6,29.97,North,0,0.0,0.0,84,0.00,,,0.00,WUHU216HW,2014-12-17 07:01:00,
2014-12-17 01:06:00,26.6,22.4,29.97,North,0,0.0,0.0,84,0.00,,,0.00,WUHU216HW,2014-12-17 07:06:00,
2014-12-17 01:11:00,26.6,22.4,29.97,North,0,0.0,0.0,84,0.00,,,0.00,WUHU216HW,2014-12-17 07:11:00,
2014-12-17 01:16:00,26.6,22.7,29.98,North,0,0.0,0.0,85,0.00,,,0.00,WUHU216HW,2014-12-17 07:16:00,
2014-12-17 01:21:00,26.5,22.2,29.98,North,0,0.0,0.0,84,0.00,,,0.00,WUHU216HW,2014-12-17 07:21:00,
2014-12-17 01:26:00,26.5,22.2,29.98,North,0,0.0,0.0,84,0.00,,,0.00,WUHU216HW,2014-12-17 07:26:00,
2014-12-17 01:31:00,26.3,22.1,29.98,North,0,0.0,0.0,84,0.00,,,0.00,WUHU216HW,2014-12-17 07:31:00,
2014-12-17 01:36:00,26.3,22.3,29.98,North,0,0.0,0.0,85,0.00,,,0.00,WUHU216HW,2014-12-17 07:36:00,
2014-12-17 01:41:00,26.3,22.3,29.98,North,0,0.0,0.0,85,0.00,,,0.00,WUHU216HW,2014-12-17 07:41:00,
2014-12-17 01:46:00,26.3,22.3,29.98,North,0,0.0,0.0,85,0.00,,,0.00,WUHU216HW,2014-12-17 07:46:00,
2014-12-17 01:51:00,26.3,22.3,29.98,North,0,0.0,0.0,85,0.00,,,0.00,WUHU216HW,2014-12-17 07:51:00,
2014-12-17 01:56:00,26.3,22.3,29.99,North,0,0.0,0.0,85,0.00,,,0.00,WUHU216HW,2014-12-17 07:56:00,
2014-12-17 02:01:00,26.3,22.3,29.99,North,0,0.0,0.0,85,0.00,,,0.00,WUHU216HW,2014-12-17 08:01:00,
2014-12-17 02:06:00,26.1,22.1,29.99,North,0,0.0,0.0,85,0.00,,,0.00,WUHU216HW,2014-12-17 08:06:00,
2014-12-17 02:11:00,26.1,21.9,29.99,North,0,0.0,0.0,84,0.00,,,0.00,WUHU216HW,2014-12-17 08:11:00,
2014-12-17 02:16:00,26.1,21.9,29.99,North,0,0.0,0.0,84,0.00,,,0.00,WUHU216HW,2014-12-17 08:16:00,
2014-12-17 02:21:00,26.1,21.9,30.00,North,0,0.0,0.0,84,0.00,,,0.00,WUHU216HW,2014-12-17 08:21:00,
2014-12-17 02:26:00,26.1,21.9,30.00,North,0,0.0,0.0,84,0.00,,,0.00,WUHU216HW,2014-12-17 08:26:00,
2014-12-17 02:31:00,25.9,21.7,30.00,North,0,0.0,0.0,84,0.00,,,0.00,WUHU216HW,2014-12-17 08:31:00,
2014-12-17 02:33:00,25.9,21.7,30.00,North,0,0.0,0.0,84,0.00,,,0.00,WUHU216HW,2014-12-17 08:33:00,
2014-12-17 02:36:00,25.9,21.7,30.00,North,0,0.0,0.0,84,0.00,,,0.00,WUHU216HW,2014-12-17 08:36:00,
2014-12-17 02:41:00,25.9,21.7,30.00,North,0,0.0,0.0,84,0.00,,,0.00,WUHU216HW,2014-12-17 08:41:00,
2014-12-17 03:00:00,25.7,21.5,30.00,North,0,0.0,0.0,84,0.00,,,0.00,WUHU216HW,2014-12-17 09:00:00,
2014-12-17 03:05:00,25.7,21.5,30.00,North,0,0.0,0.0,84,0.00,,,0.00,WUHU216HW,2014-12-17 09:05:00,
2014-12-17 03:10:00,25.7,21.5,30.00,North,0,0.0,0.0,84,0.00,,,0.00,WUHU216HW,2014-12-17 09:10:00,
2014-12-17 03:15:00,25.7,21.5,30.00,North,0,0.0,0.0,84,0.00,,,0.00,WUHU216HW,2014-12-17 09:15:00,
2014-12-17 03:20:00,25.7,21.2,30.00,North,0,0.0,0.0,83,0.00,,,0.00,WUHU216HW,2014-12-17 09:20:00,
2014-12-17 03:25:00,25.7,21.2,30.00,North,0,0.0,0.0,83,0.00,,,0.00,WUHU216HW,2014-12-17 09:25:00,
2014-12-17 03:30:00,25.6,21.1,30.00,North,0,0.0,0.0,83,0.00,,,0.00,WUHU216HW,2014-12-17 09:30:00,
2014-12-17 03:35:00,25.6,21.1,30.00,North,0,0.0,0.0,83,0.00,,,0.00,WUHU216HW,2014-12-17 09:35:00,
2014-12-17 03:40:00,25.7,21.0,30.00,North,0,0.0,0.0,82,0.00,,,0.00,WUHU216HW,2014-12-17 09:40:00,
2014-12-17 03:45:00,25.6,20.8,30.00,North,0,0.0,0.0,82,0.00,,,0.00,WUHU216HW,2014-12-17 09:45:00,
2014-12-17 03:50:00,25.6,20.8,30.00,North,0,0.0,0.0,82,0.00,,,0.00,WUHU216HW,2014-12-17 09:50:00,
2014-12-17 03:55:00,25.6,20.8,30.00,North,0,0.0,0.0,82,0.00,,,0.00,WUHU216HW,2014-12-17 09:55:00,
2014-12-17 04:00:00,25.6,20.8,30.00,North,0,0.0,0.0,82,0.00,,,0.00,WUHU216HW,2014-12-17 10:00:00,
2014-12-17 04:05:00,25.4,20.3,30.00,North,0,0.0,0.0,81,0.00,,,0.00,WUHU216HW,2014-12-17 10:05:00,
2014-12-17 04:10:00,25.4,20.3,30.00,North,0,0.0,0.0,81,0.00,,,0.00,WUHU216HW,2014-12-17 10:10:00,
2014-12-17 04:15:00,25.2,20.3,30.00,North,0,0.0,0.0,81,0.00,,,0.00,WUHU216HW,2014-12-17 10:15:00,
2014-12-17 04:20:00,25.2,20.3,30.00,North,0,0.0,0.0,81,0.00,,,0.00,WUHU216HW,2014-12-17 10:20:00,
2014-12-17 04:25:00,25.2,20.5,30.00,North,0,0.0,0.0,82,0.00,,,0.00,WUHU216HW,2014-12-17 10:25:00,
2014-12-17 04:30:00,25.2,20.5,30.00,North,0,0.0,0.0,82,0.00,,,0.00,WUHU216HW,2014-12-17 10:30:00,
2014-12-17 04:35:00,25.2,20.8,30.00,North,0,0.0,0.0,83,0.00,,,0.00,WUHU216HW,2014-12-17 10:35:00,
2014-12-17 04:40:00,25.2,20.8,30.01,North,0,0.0,0.0,83,0.00,,,0.00,WUHU216HW,2014-12-17 10:40:00,
2014-12-17 04:45:00,25.0,20.9,30.01,North,0,0.0,0.0,84,0.00,,,0.00,WUHU216HW,2014-12-17 10:45:00,
2014-12-17 04:50:00,25.0,20.9,30.01,North,0,0.0,0.0,84,0.00,,,0.00,WUHU216HW,2014-12-17 10:50:00,
2014-12-17 04:55:00,25.0,20.9,30.01,North,0,0.0,0.0,84,0.00,,,0.00,WUHU216HW,2014-12-17 10:55:00,
2014-12-17 05:00:00,24.8,20.7,30.01,North,0,0.0,0.0,84,0.00,,,0.00,WUHU216HW,2014-12-17 11:00:00,
2014-12-17 05:05:00,24.8,20.7,30.02,North,0,0.0,0.0,84,0.00,,,0.00,WUHU216HW,2014-12-17 11:05:00,
2014-12-17 05:10:00,24.8,20.7,30.01,North,0,0.0,0.0,84,0.00,,,0.00,WUHU216HW,2014-12-17 11:10:00,
2014-12-17 05:15:00,24.8,20.7,30.01,North,0,0.0,0.0,84,0.00,,,0.00,WUHU216HW,2014-12-17 11:15:00,
2014-12-17 05:36:00,24.7,20.8,30.02,North,0,0.0,0.0,85,0.00,,,0.00,WUHU216HW,2014-12-17 11:36:00,
2014-12-17 05:41:00,24.7,20.8,30.02,North,0,0.0,0.0,85,0.00,,,0.00,WUHU216HW,2014-12-17 11:41:00,
2014-12-17 05:46:00,24.7,20.8,30.03,North,0,0.0,0.0,85,0.00,,,0.00,WUHU216HW,2014-12-17 11:46:00,
2014-12-17 05:51:00,24.5,20.3,30.03,North,0,0.0,0.0,84,0.00,,,0.00,WUHU216HW,2014-12-17 11:51:00,
2014-12-17 05:56:00,24.5,20.3,30.03,North,0,0.0,0.0,84,0.00,,,0.00,WUHU216HW,2014-12-17 11:56:00,
2014-12-17 06:01:00,24.5,20.1,30.03,North,0,0.0,0.0,83,0.00,,,0.00,WUHU216HW,2014-12-17 12:01:00,
2014-12-17 06:06:00,24.5,20.1,30.03,North,0,0.0,0.0,83,0.00,,,0.00,WUHU216HW,2014-12-17 12:06:00,
2014-12-17 06:11:00,24.5,20.1,30.03,North,0,0.0,0.0,83,0.00,,,0.00,WUHU216HW,2014-12-17 12:11:00,
2014-12-17 06:16:00,24.5,20.3,30.03,North,0,0.0,0.0,84,0.00,,,0.00,WUHU216HW,2014-12-17 12:16:00,
2014-12-17 06:21:00,24.5,20.3,30.03,North,0,0.0,0.0,84,0.00,,,0.00,WUHU216HW,2014-12-17 12:21:00,
2014-12-17 06:26:00,24.5,20.3,30.03,North,0,0.0,0.0,84,0.00,,,0.00,WUHU216HW,2014-12-17 12:26:00,
2014-12-17 06:31:00,24.3,20.2,30.03,North,0,0.0,0.0,84,0.00,,,0.00,WUHU216HW,2014-12-17 12:31:00,
2014-12-17 06:36:00,24.3,20.2,30.04,North,0,0.0,0.0,84,0.00,,,0.00,WUHU216HW,2014-12-17 12:36:00,
2014-12-17 06:41:00,24.1,20.0,30.04,North,0,0.0,0.0,84,0.00,,,0.00,WUHU216HW,2014-12-17 12:41:00,
2014-12-17 06:46:00,24.1,20.0,30.04,North,0,0.0,0.0,84,0.00,,,0.00,WUHU216HW,2014-12-17 12:46:00,
2014-12-17 06:51:00,23.9,19.8,30.04,North,0,0.0,0.0,84,0.00,,,0.00,WUHU216HW,2014-12-17 12:51:00,
2014-12-17 06:56:00,23.9,19.8,30.04,North,0,0.0,0.0,84,0.00,,,0.00,WUHU216HW,2014-12-17 12:56:00,
2014-12-17 07:01:00,23.9,19.8,30.05,North,0,0.0,0.0,84,0.00,,,0.00,WUHU216HW,2014-12-17 13:01:00,
2014-12-17 07:06:00,23.9,19.8,30.04,North,0,0.0,0.0,84,0.00,,,0.00,WUHU216HW,2014-12-17 13:06:00,
2014-12-17 07:11:00,23.9,19.8,30.05,North,0,0.0,0.0,84,0.00,,,0.00,WUHU216HW,2014-12-17 13:11:00,
2014-12-17 07:16:00,23.9,19.8,30.05,North,0,0.0,0.0,84,0.00,,,0.00,WUHU216HW,2014-12-17 13:16:00,
2014-12-17 07:21:00,23.9,19.8,30.05,North,0,0.0,0.0,84,0.00,,,0.00,WUHU216HW,2014-12-17 13:21:00,
2014-12-17 07:26:00,23.9,19.8,30.05,North,0,0.0,0.0,84,0.00,,,0.00,WUHU216HW,2014-12-17 13:26:00,
2014-12-17 07:31:00,23.9,19.8,30.05,North,0,0.0,0.0,84,0.00,,,0.00,WUHU216HW,2014-12-17 13:31:00,
2014-12-17 07:36:00,23.9,19.8,30.05,North,0,0.0,0.0,84,0.00,,,0.00,WUHU216HW,2014-12-17 13:36:00,
2014-12-17 07:41:00,23.8,19.6,30.05,North,0,0.0,0.0,84,0.00,,,0.00,WUHU216HW,2014-12-17 13:41:00,
2014-12-17 07:46:00,23.9,19.8,30.05,North,0,0.0,0.0,84,0.00,,,0.00,WUHU216HW,2014-12-17 13:46:00,
2014-12-17 07:51:00,23.8,19.6,30.05,North,0,0.0,0.0,84,0.00,,,0.00,WUHU216HW,2014-12-17 13:51:00,
2014-12-17 07:56:00,23.9,20.1,30.05,North,0,0.0,0.0,85,0.00,,,0.00,WUHU216HW,2014-12-17 13:56:00,
2014-12-17 08:01:00,23.9,19.8,30.05,North,0,0.0,0.0,84,0.00,,,0.00,WUHU216HW,2014-12-17 14:01:00,
2014-12-17 08:06:00,23.9,19.8,30.05,North,0,0.0,0.0,84,0.00,,,0.00,WUHU216HW,2014-12-17 14:06:00,
2014-12-17 08:11:00,23.8,19.6,30.05,North,0,0.0,0.0,84,0.00,,,0.00,WUHU216HW,2014-12-17 14:11:00,
2014-12-17 08:16:00,23.9,19.8,30.05,North,0,0.0,0.0,84,0.00,,,0.00,WUHU216HW,2014-12-17 14:16:00,
2014-12-17 08:21:00,23.9,19.8,30.05,North,0,0.0,0.0,84,0.00,,,0.00,WUHU216HW,2014-12-17 14:21:00,
2014-12-17 08:26:00,24.1,20.0,30.05,North,0,0.0,0.0,84,0.00,,,0.00,WUHU216HW,2014-12-17 14:26:00,
2014-12-17 08:31:00,24.3,20.2,30.05,North,0,0.0,0.0,84,0.00,,,0.00,WUHU216HW,2014-12-17 14:31:00,
2014-12-17 08:36:00,24.3,20.2,30.05,North,0,0.0,0.0,84,0.00,,,0.00,WUHU216HW,2014-12-17 14:36:00,
2014-12-17 08:41:00,24.3,20.2,30.05,North,0,0.0,0.0,84,0.00,,,0.00,WUHU216HW,2014-12-17 14:41:00,
2014-12-17 08:46:00,24.3,20.2,30.05,North,0,0.0,0.0,84,0.00,,,0.00,WUHU216HW,2014-12-17 14:46:00,
2014-12-17 08:51:00,24.1,20.0,30.05,North,0,0.0,0.0,84,0.00,,,0.00,WUHU216HW,2014-12-17 14:51:00,
2014-12-17 08:56:00,24.1,20.0,30.05,North,0,0.0,0.0,84,0.00,,,0.00,WUHU216HW,2014-12-17 14:56:00,
2014-12-17 09:01:00,24.1,20.0,30.05,North,0,0.0,0.0,84,0.00,,,0.00,WUHU216HW,2014-12-17 15:01:00,
2014-12-17 09:06:00,24.1,20.0,30.06,North,0,0.0,0.0,84,0.00,,,0.00,WUHU216HW,2014-12-17 15:06:00,
2014-12-17 09:11:00,24.1,20.0,30.06,North,0,0.0,0.0,84,0.00,,,0.00,WUHU216HW,2014-12-17 15:11:00,
2014-12-17 09:16:00,24.3,20.2,30.06,North,0,0.0,0.0,84,0.00,,,0.00,WUHU216HW,2014-12-17 15:16:00,
2014-12-17 09:21:00,24.3,19.9,30.06,North,0,0.0,0.0,83,0.00,,,0.00,WUHU216HW,2014-12-17 15:21:00,
2014-12-17 09:26:00,24.3,19.9,30.06,North,0,0.0,0.0,83,0.00,,,0.00,WUHU216HW,2014-12-17 15:26:00,
2014-12-17 09:31:00,24.5,20.1,30.07,North,0,0.0,0.0,83,0.00,,,0.00,WUHU216HW,2014-12-17 15:31:00,
2014-12-17 09:36:00,24.5,20.1,30.06,North,0,0.0,0.0,83,0.00,,,0.00,WUHU216HW,2014-12-17 15:36:00,
2014-12-17 09:41:00,24.5,19.8,30.06,North,0,0.0,0.0,82,0.00,,,0.00,WUHU216HW,2014-12-17 15:41:00,
2014-12-17 09:46:00,24.7,20.0,30.07,North,0,0.0,0.0,82,0.00,,,0.00,WUHU216HW,2014-12-17 15:46:00,
2014-12-17 09:51:00,24.5,19.8,30.07,North,0,0.0,0.0,82,0.00,,,0.00,WUHU216HW,2014-12-17 15:51:00,
2014-12-17 09:56:00,24.5,19.8,30.07,North,0,0.0,0.0,82,0.00,,,0.00,WUHU216HW,2014-12-17 15:56:00,
2014-12-17 10:01:00,24.7,20.0,30.07,North,0,0.0,0.0,82,0.00,,,0.00,WUHU216HW,2014-12-17 16:01:00,
2014-12-17 10:06:00,24.7,20.0,30.07,North,0,0.0,0.0,82,0.00,,,0.00,WUHU216HW,2014-12-17 16:06:00,
2014-12-17 10:11:00,24.8,20.2,30.07,North,0,0.0,0.0,82,0.00,,,0.00,WUHU216HW,2014-12-17 16:11:00,
2014-12-17 10:16:00,24.8,19.9,30.07,North,0,0.0,0.0,81,0.00,,,0.00,WUHU216HW,2014-12-17 16:16:00,
2014-12-17 10:21:00,24.7,19.7,30.06,North,0,0.0,0.0,81,0.00,,,0.00,WUHU216HW,2014-12-17 16:21:00,
2014-12-17 10:26:00,24.7,19.4,30.06,North,0,0.0,0.0,80,0.00,,,0.00,WUHU216HW,2014-12-17 16:26:00,
2014-12-17 10:31:00,24.7,19.7,30.06,North,0,0.0,0.0,81,0.00,,,0.00,WUHU216HW,2014-12-17 16:31:00,
2014-12-17 10:36:00,24.5,19.5,30.07,North,0,0.0,0.0,81,0.00,,,0.00,WUHU216HW,2014-12-17 16:36:00,
2014-12-17 10:41:00,24.7,19.7,30.06,North,0,0.0,0.0,81,0.00,,,0.00,WUHU216HW,2014-12-17 16:41:00,
2014-12-17 10:46:00,24.5,19.5,30.06,North,0,0.0,0.0,81,0.00,,,0.00,WUHU216HW,2014-12-17 16:46:00,
2014-12-17 10:51:00,24.7,19.7,30.06,North,0,0.0,0.0,81,0.00,,,0.00,WUHU216HW,2014-12-17 16:51:00,
2014-12-17 10:56:00,24.7,19.7,30.06,North,0,0.0,0.0,81,0.00,,,0.00,WUHU216HW,2014-12-17 16:56:00,
2014-12-17 11:01:00,24.5,19.5,30.06,North,0,0.0,0.0,81,0.00,,,0.00,WUHU216HW,2014-12-17 17:01:00,
2014-12-17 11:06:00,24.5,19.5,30.06,North,0,0.0,0.0,81,0.00,,,0.00,WUHU216HW,2014-12-17 17:06:00,
2014-12-17 11:11:00,24.7,19.7,30.06,North,0,0.0,0.0,81,0.00,,,0.00,WUHU216HW,2014-12-17 17:11:00,
2014-12-17 11:16:00,24.7,19.4,30.06,North,0,0.0,0.0,80,0.00,,,0.00,WUHU216HW,2014-12-17 17:16:00,
2014-12-17 11:21:00,24.7,19.4,30.05,North,0,0.0,0.0,80,0.00,,,0.00,WUHU216HW,2014-12-17 17:21:00,
2014-12-17 11:26:00,24.7,19.4,30.06,North,0,0.0,0.0,80,0.00,,,0.00,WUHU216HW,2014-12-17 17:26:00,
2014-12-17 11:31:00,24.7,19.4,30.05,North,0,0.0,0.0,80,0.00,,,0.00,WUHU216HW,2014-12-17 17:31:00,
2014-12-17 11:36:00,24.5,19.3,30.05,North,0,0.0,0.0,80,0.00,,,0.00,WUHU216HW,2014-12-17 17:36:00,
2014-12-17 11:41:00,24.7,19.4,30.05,North,0,0.0,0.0,80,0.00,,,0.00,WUHU216HW,2014-12-17 17:41:00,
2014-12-17 11:46:00,24.8,19.6,30.05,North,0,0.0,0.0,80,0.00,,,0.00,WUHU216HW,2014-12-17 17:46:00,
2014-12-17 11:51:00,25.2,20.0,30.05,North,0,0.0,0.0,80,0.00,,,0.00,WUHU216HW,2014-12-17 17:51:00,
2014-12-17 11:56:00,25.2,20.0,30.05,North,0,0.0,0.0,80,0.00,,,0.00,WUHU216HW,2014-12-17 17:56:00,
2014-12-17 12:01:00,25.0,19.4,30.05,North,0,0.0,0.0,79,0.00,,,0.00,WUHU216HW,2014-12-17 18:01:00,
2014-12-17 12:06:00,24.8,19.3,30.05,North,0,0.0,0.0,79,0.00,,,0.00,WUHU216HW,2014-12-17 18:06:00,
2014-12-17 12:11:00,24.8,19.6,30.05,North,0,0.0,0.0,80,0.00,,,0.00,WUHU216HW,2014-12-17 18:11:00,
2014-12-17 12:16:00,24.8,19.6,30.05,North,0,0.0,0.0,80,0.00,,,0.00,WUHU216HW,2014-12-17 18:16:00,
2014-12-17 12:21:00,24.8,19.6,30.04,North,0,0.0,0.0,80,0.00,,,0.00,WUHU216HW,2014-12-17 18:21:00,
2014-12-17 12:26:00,25.0,20.1,30.04,North,0,0.0,0.0,81,0.00,,,0.00,WUHU216HW,2014-12-17 18:26:00,
2014-12-17 12:31:00,25.0,20.1,30.04,North,0,0.0,0.0,81,0.00,,,0.00,WUHU216HW,2014-12-17 18:31:00,
2014-12-17 12:36:00,25.4,20.1,30.04,North,0,0.0,0.0,80,0.00,,,0.00,WUHU216HW,2014-12-17 18:36:00,
2014-12-17 12:41:00,25.2,20.0,30.04,North,0,0.0,0.0,80,0.00,,,0.00,WUHU216HW,2014-12-17 18:41:00,
2014-12-17 12:46:00,25.4,20.1,30.04,North,0,0.0,0.0,80,0.00,,,0.00,WUHU216HW,2014-12-17 18:46:00,
2014-12-17 12:51:00,25.4,20.1,30.04,North,0,0.0,0.0,80,0.00,,,0.00,WUHU216HW,2014-12-17 18:51:00,
2014-12-17 12:56:00,25.4,20.1,30.04,North,0,0.0,0.0,80,0.00,,,0.00,WUHU216HW,2014-12-17 18:56:00,
2014-12-17 13:01:00,25.4,19.8,30.04,North,0,0.0,0.0,79,0.00,,,0.00,WUHU216HW,2014-12-17 19:01:00,
2014-12-17 13:06:00,25.4,19.8,30.04,North,0,0.0,0.0,79,0.00,,,0.00,WUHU216HW,2014-12-17 19:06:00,
2014-12-17 13:11:00,25.6,20.0,30.04,North,0,0.0,0.0,79,0.00,,,0.00,WUHU216HW,2014-12-17 19:11:00,
2014-12-17 13:16:00,25.4,19.8,30.04,North,0,0.0,0.0,79,0.00,,,0.00,WUHU216HW,2014-12-17 19:16:00,
2014-12-17 13:21:00,25.4,19.8,30.04,North,0,0.0,0.0,79,0.00,,,0.00,WUHU216HW,2014-12-17 19:21:00,
2014-12-17 13:26:00,25.2,19.6,30.04,North,0,0.0,0.0,79,0.00,,,0.00,WUHU216HW,2014-12-17 19:26:00,
2014-12-17 13:31:00,25.2,20.0,30.04,North,0,0.0,0.0,80,0.00,,,0.00,WUHU216HW,2014-12-17 19:31:00,
2014-12-17 13:36:00,25.2,20.0,30.04,North,0,0.0,0.0,80,0.00,,,0.00,WUHU216HW,2014-12-17 19:36:00,
2014-12-17 13:41:00,25.4,19.8,30.04,North,0,0.0,0.0,79,0.00,,,0.00,WUHU216HW,2014-12-17 19:41:00,
2014-12-17 13:46:00,25.2,20.0,30.04,North,0,0.0,0.0,80,0.00,,,0.00,WUHU216HW,2014-12-17 19:46:00,
2014-12-17 13:51:00,25.2,19.6,30.04,North,0,0.0,0.0,79,0.00,,,0.00,WUHU216HW,2014-12-17 19:51:00,
2014-12-17 13:56:00,25.0,19.4,30.04,North,0,0.0,0.0,79,0.00,,,0.00,WUHU216HW,2014-12-17 19:56:00,
2014-12-17 14:01:00,24.8,19.3,30.04,North,0,0.0,0.0,79,0.00,,,0.00,WUHU216HW,2014-12-17 20:01:00,
2014-12-17 14:06:00,24.8,19.3,30.05,North,0,0.0,0.0,79,0.00,,,0.00,WUHU216HW,2014-12-17 20:06:00,
2014-12-17 14:11:00,24.8,19.3,30.05,North,0,0.0,0.0,79,0.00,,,0.00,WUHU216HW,2014-12-17 20:11:00,
2014-12-17 14:16:00,24.8,19.3,30.05,North,0,0.0,0.0,79,0.00,,,0.00,WUHU216HW,2014-12-17 20:16:00,
2014-12-17 14:21:00,24.7,19.1,30.05,North,0,0.0,0.0,79,0.00,,,0.00,WUHU216HW,2014-12-17 20:21:00,
2014-12-17 14:26:00,24.7,19.1,30.05,North,0,0.0,0.0,79,0.00,,,0.00,WUHU216HW,2014-12-17 20:26:00,
2014-12-17 14:31:00,24.5,19.3,30.05,North,0,0.0,0.0,80,0.00,,,0.00,WUHU216HW,2014-12-17 20:31:00,
2014-12-17 14:36:00,24.5,19.3,30.05,North,0,0.0,0.0,80,0.00,,,0.00,WUHU216HW,2014-12-17 20:36:00,
2014-12-17 14:41:00,24.5,19.3,30.05,North,0,0.0,0.0,80,0.00,,,0.00,WUHU216HW,2014-12-17 20:41:00,
2014-12-17 14:46:00,24.5,19.3,30.06,North,0,0.0,0.0,80,0.00,,,0.00,WUHU216HW,2014-12-17 20:46:00,
2014-12-17 14:51:00,24.5,18.9,30.06,North,0,0.0,0.0,79,0.00,,,0.00,WUHU216HW,2014-12-17 20:51:00,
2014-12-17 14:56:00,24.3,19.1,30.06,North,0,0.0,0.0,80,0.00,,,0.00,WUHU216HW,2014-12-17 20:56:00,
2014-12-17 15:01:00,24.3,19.1,30.06,North,0,0.0,0.0,80,0.00,,,0.00,WUHU216HW,2014-12-17 21:01:00,
2014-12-17 15:06:00,24.3,19.1,30.06,North,0,0.0,0.0,80,0.00,,,0.00,WUHU216HW,2014-12-17 21:06:00,
2014-12-17 15:11:00,24.3,19.1,30.07,North,0,0.0,0.0,80,0.00,,,0.00,WUHU216HW,2014-12-17 21:11:00,
2014-12-17 15:16:00,24.1,18.9,30.07,North,0,0.0,0.0,80,0.00,,,0.00,WUHU216HW,2014-12-17 21:16:00,
2014-12-17 15:21:00,24.1,18.9,30.06,North,0,0.0,0.0,80,0.00,,,0.00,WUHU216HW,2014-12-17 21:21:00,
2014-12-17 15:26:00,24.1,18.9,30.07,North,0,0.0,0.0,80,0.00,,,0.00,WUHU216HW,2014-12-17 21:26:00,
2014-12-17 15:31:00,24.1,18.9,30.07,North,0,0.0,0.0,80,0.00,,,0.00,WUHU216HW,2014-12-17 21:31:00,
2014-12-17 15:36:00,23.9,18.7,30.07,North,0,0.0,0.0,80,0.00,,,0.00,WUHU216HW,2014-12-17 21:36:00,
2014-12-17 15:41:00,23.9,18.7,30.07,North,0,0.0,0.0,80,0.00,,,0.00,WUHU216HW,2014-12-17 21:41:00,
2014-12-17 15:46:00,23.9,18.7,30.07,North,0,0.0,0.0,80,0.00,,,0.00,WUHU216HW,2014-12-17 21:46:00,
2014-12-17 15:51:00,23.8,18.5,30.07,North,0,0.0,0.0,80,0.00,,,0.00,WUHU216HW,2014-12-17 21:51:00,
2014-12-17 15:56:00,23.4,18.2,30.07,North,0,0.0,0.0,80,0.00,,,0.00,WUHU216HW,2014-12-17 21:56:00,
2014-12-17 16:01:00,23.4,18.2,30.07,North,0,0.0,0.0,80,0.00,,,0.00,WUHU216HW,2014-12-17 22:01:00,
2014-12-17 16:06:00,23.4,18.2,30.07,North,0,0.0,0.0,80,0.00,,,0.00,WUHU216HW,2014-12-17 22:06:00,
2014-12-17 16:10:00,23.4,18.2,30.07,North,0,0.0,0.0,80,0.00,,,0.00,WUHU216HW,2014-12-17 22:10:00,
2014-12-17 16:15:00,23.2,18.0,30.08,North,0,0.0,0.0,80,0.00,,,0.00,WUHU216HW,2014-12-17 22:15:00,
2014-12-17 16:20:00,23.2,18.0,30.08,North,0,0.0,0.0,80,0.00,,,0.00,WUHU216HW,2014-12-17 22:20:00,
2014-12-17 16:25:00,23.0,17.8,30.08,North,0,0.0,0.0,80,0.00,,,0.00,WUHU216HW,2014-12-17 22:25:00,
2014-12-17 16:30:00,22.9,17.6,30.08,North,0,0.0,0.0,80,0.00,,,0.00,WUHU216HW,2014-12-17 22:30:00,
2014-12-17 16:35:00,22.9,17.6,30.08,North,0,0.0,0.0,80,0.00,,,0.00,WUHU216HW,2014-12-17 22:35:00,
2014-12-17 16:40:00,22.7,17.5,30.08,North,0,0.0,0.0,80,0.00,,,0.00,WUHU216HW,2014-12-17 22:40:00,
2014-12-17 16:45:00,22.7,17.7,30.08,North,0,0.0,0.0,81,0.00,,,0.00,WUHU216HW,2014-12-17 22:45:00,
2014-12-17 16:50:00,22.5,17.6,30.08,North,0,0.0,0.0,81,0.00,,,0.00,WUHU216HW,2014-12-17 22:50:00,
2014-12-17 16:55:00,22.3,17.4,30.08,North,0,0.0,0.0,81,0.00,,,0.00,WUHU216HW,2014-12-17 22:55:00,
2014-12-17 17:00:00,22.1,17.2,30.08,North,0,0.0,0.0,81,0.00,,,0.00,WUHU216HW,2014-12-17 23:00:00,
2014-12-17 17:05:00,22.0,17.3,30.08,North,0,0.0,0.0,82,0.00,,,0.00,WUHU216HW,2014-12-17 23:05:00,
2014-12-17 17:10:00,21.8,17.1,30.09,North,0,0.0,0.0,82,0.00,,,0.00,WUHU216HW,2014-12-17 23:10:00,